Weather History for Las Vegas, NV

Change the Weather History Date:

Wednesday, May 1, 2013

  Actual Average Record
Temperature  
Mean Temperature 72 °F 72 °F  
Max Temperature 82 °F 84 °F 102 °F (1947)
Min Temperature 62 °F 61 °F 41 °F (1967)
Degree Days  
Heating Degree Days 0 1  
Month to date heating degree days 0 1  
Since 1 July heating degree days 1757 1944  
Cooling Degree Days 7 8  
Month to date cooling degree days 7 8  
Year to date cooling degree days 287 168  
Growing Degree Days 24 (Base 50)    
Moisture  
Dew Point -5 °F    
Average Humidity 5    
Maximum Humidity 7    
Minimum Humidity 3    
Precipitation  
Precipitation 0.00 in 0.00 in 0.54 in (1978)
Month to date precipitation 0.00 0.00  
Year to date precipitation 0.61 1.89  
Snow  
Snow 0.00 in 0.00 in 0.00 in ()
Month to date snowfall 0.0 0.0  
Since 1 July snowfall T 0.3  
Snow Depth 0.00 in    
Sea Level Pressure  
Sea Level Pressure 30.02 in    
Wind  
Wind Speed 13 mph (NNE)    
Max Wind Speed 26 mph    
Max Gust Speed 39 mph    
Visibility 10 miles    
Events      
T = Trace of Precipitation, MM = Missing Value Source: NWS Daily Summary

Daily Weather History Graph

Daily Weather History Graph

Search for Another Location

Airport:

Trip Planner

Search our weather history database for the weather conditions in past years. The results will help you decide how hot, cold, wet, or windy it might be!

Date:

Astronomy

May. 01, 2013 Rise Set
Actual Time 5:47 AM PDT 7:28 PM PDT
Civil Twilight 5:20 AM PDT 7:55 PM PDT
Nautical Twilight 4:46 AM PDT 8:29 PM PDT
Astronomical Twilight 4:11 AM PDT 9:04 PM PDT
Moon 12:40 AM PDT (5/1) 11:30 AM PDT (5/1)
Length of Visible Light 14h 35m
Length of Day
13h 40m
Waning Gibbous, 58% of the Moon is Illuminated
May 1
Waning Gibbous
May 2
Last Quarter
May 9
New
May 17
First Quarter
May 24
Full

Hourly Weather History & Observations

Time (PDT) Temp. Dew Point Humidity Pressure Visibility Wind Dir Wind Speed Gust Speed Precip Events Conditions
12:56 AM 79.0 °F 8.1 °F 7% 29.68 in 10.0 mi North 18.4 mph 27.6 mph N/A   Partly Cloudy
1:56 AM 75.9 °F 6.1 °F 7% 29.72 in 10.0 mi ENE 16.1 mph 24.2 mph N/A   Partly Cloudy
2:56 AM 73.0 °F 1.9 °F 6% 29.77 in 10.0 mi North 13.8 mph 27.6 mph N/A   Partly Cloudy
3:56 AM 71.1 °F -2.0 °F 6% 29.83 in 10.0 mi NNE 15.0 mph 21.9 mph N/A   Partly Cloudy
4:56 AM 69.1 °F -9.0 °F 4% 29.87 in 10.0 mi NNE 11.5 mph 23.0 mph N/A   Partly Cloudy
5:56 AM 66.9 °F -11.0 °F 4% 29.92 in 10.0 mi NNE 18.4 mph 25.3 mph N/A   Clear
6:56 AM 66.9 °F -9.0 °F 5% 29.96 in 10.0 mi North 13.8 mph 25.3 mph N/A   Clear
7:56 AM 68.0 °F -7.6 °F 5% 30.06 in 10.0 mi North 12.7 mph 20.7 mph N/A   Clear
8:56 AM 69.1 °F -7.1 °F 5% 30.02 in 10.0 mi NNE 16.1 mph - N/A   Partly Cloudy
9:56 AM 71.1 °F -7.1 °F 4% 30.03 in 10.0 mi North 13.8 mph 19.6 mph N/A   Partly Cloudy
10:56 AM 73.4 °F -7.6 °F 4% 30.11 in 10.0 mi Variable 6.9 mph 17.3 mph N/A   Partly Cloudy
11:56 AM 73.9 °F -9.9 °F 4% 30.05 in 10.0 mi Variable 4.6 mph 18.4 mph N/A   Clear
12:56 PM 77.0 °F -11.0 °F 4% 30.04 in 10.0 mi Calm Calm - N/A   Clear
1:05 PM 77.0 °F -11.2 °F 4% 30.10 in 10.0 mi Variable 4.6 mph 18.4 mph N/A   Clear
1:09 PM 77.0 °F -11.2 °F 4% 30.10 in 10.0 mi NNW 11.5 mph - N/A   Clear
1:56 PM 78.8 °F -11.2 °F 4% 30.10 in 10.0 mi North 9.2 mph 18.4 mph N/A   Clear
2:56 PM 80.1 °F -11.9 °F 4% 30.03 in 10.0 mi ENE 11.5 mph 17.3 mph N/A   Clear
3:56 PM 80.1 °F -6.0 °F 4% 30.02 in 10.0 mi East 8.1 mph 23.0 mph N/A   Clear
4:56 PM 81.0 °F -2.9 °F 4% 30.01 in 10.0 mi ENE 12.7 mph 18.4 mph N/A   Partly Cloudy
5:56 PM 81.0 °F -9.0 °F 4% 30.01 in 10.0 mi NNE 17.3 mph 24.2 mph N/A   Clear
6:56 PM 75.0 °F 1.0 °F 6% 30.05 in 10.0 mi ENE 21.9 mph 26.5 mph N/A   Clear
7:56 PM 71.1 °F 1.0 °F 6% 30.10 in 10.0 mi NE 19.6 mph 29.9 mph N/A   Clear
8:56 PM 68.0 °F -0.0 °F 7% 30.15 in 10.0 mi NE 15.0 mph 27.6 mph N/A   Clear
9:56 PM 66.0 °F -0.9 °F 7% 30.19 in 10.0 mi NNE 15.0 mph 23.0 mph N/A   Clear
10:56 PM 64.0 °F -0.9 °F 7% 30.22 in 9.0 mi NE 17.3 mph 25.3 mph N/A   Clear
11:56 PM 63.0 °F -2.0 °F 7% 30.25 in 9.0 mi ENE 16.1 mph 24.2 mph N/A   Clear